This is the latest recevied weather packets stored in our database for station/object KC5DAQ-29. If no packets are shown the sender has not sent any weather packets the latest 10 day(s).
| Time | Temp. | Humidity | Pressure | Rain* | Wind** | Luminosity | Snow |
|---|---|---|---|---|---|---|---|
| 1787860610 | 37.22° C | 92% | 1010.3 hPa | 0 mm | - | 979 W/m² | - |
| 1787860551 | 36.67° C | 93% | 1010.4 hPa | 0 mm | - | 979 W/m² | - |
| 1787860490 | 36.67° C | 92% | 1010.3 hPa | 0 mm | - | 979 W/m² | - |
| 1787860431 | 36.67° C | 92% | 1010.4 hPa | 0 mm | - | 979 W/m² | - |
| 1787860354 | 36.67° C | 92% | 1010.4 hPa | 0 mm | - | 999 W/m² | - |
| 1787860291 | 37.22° C | 90% | 1010.4 hPa | 0 mm | - | 999 W/m² | - |
| 1787860231 | 37.22° C | 91% | 1010.4 hPa | 0 mm | - | 999 W/m² | - |
| 1787860171 | 37.22° C | 91% | 1010.5 hPa | 0 mm | - | 999 W/m² | - |
| 1787860113 | 37.22° C | 94% | 1010.4 hPa | 0 mm | - | 999 W/m² | - |
| 1787860023 | 37.22° C | 100% | 1010.6 hPa | 0 mm | - | 999 W/m² | - |
| 1787859964 | 37.22° C | 100% | 1010.5 hPa | 0 mm | - | 999 W/m² | - |
| 1787859903 | 36.67° C | 100% | 1010.5 hPa | 0 mm | - | 1002 W/m² | - |
| 1787859844 | 36.67° C | 100% | 1010.6 hPa | 0 mm | - | 1006 W/m² | - |
| 1787859784 | 36.67° C | 100% | 1010.6 hPa | 0 mm | - | 1009 W/m² | - |
| 1787859722 | 36.11° C | 100% | 1010.6 hPa | 0 mm | - | 1009 W/m² | - |
| 1787859663 | 36.11° C | 100% | 1010.6 hPa | 0 mm | - | 1011 W/m² | - |
| 1787859602 | 36.11° C | 100% | 1010.6 hPa | 0 mm | - | 1013 W/m² | - |
| 1787859542 | 36.11° C | 100% | 1010.6 hPa | 0 mm | - | 1013 W/m² | - |
| 1787859483 | 36.11° C | 100% | 1010.7 hPa | 0 mm | - | 1011 W/m² | - |
| 1787859423 | 36.11° C | 100% | 1010.6 hPa | 0 mm | - | 1025 W/m² | - |
| 1787859364 | 36.11° C | 100% | 1010.6 hPa | 0 mm | - | 1029 W/m² | - |
| 1787859303 | 36.11° C | 100% | 1010.6 hPa | 0 mm | - | 1029 W/m² | - |
| 1787859243 | 36.11° C | 100% | 1010.7 hPa | 0 mm | - | 1029 W/m² | - |
| 1787859183 | 36.11° C | 100% | 1010.7 hPa | 0 mm | - | 1029 W/m² | - |
| 1787859124 | 36.11° C | 100% | 1010.7 hPa | 0 mm | - | 1029 W/m² | - |
* Rain latest hour (hover to see other rain measurements)
** Current wind speed in m/s (hover to see current wind gust speed)